Time_in_sec,Latitude,Longitude,Altitude,Nbsat_max_qualitysignal,Nbsat_locked,valid_data
1323444525.39795494,47.37538147,8.55004787,497.17010498,0,7,1
1323444618.54848766,47.37540436,8.55004311,499.39480591,5,7,1
1323444618.60049057,47.37540436,8.55004311,499.37240601,5,7,1
1323444618.64848399,47.37540436,8.55004311,499.34994507,5,7,1
1323444618.70163918,47.37540436,8.55004311,499.32745361,5,7,1
1323444618.74917674,47.37540436,8.55004311,499.30493164,4,7,1
1323444618.80150700,47.37540436,8.55004406,499.41741943,4,7,1
1323444618.84848404,47.37540436,8.55004406,499.39541626,4,7,1
1323444618.90164495,47.37540436,8.55004501,499.37338257,4,7,1
1323444618.94986558,47.37540436,8.55004501,499.35134888,4,7,1
1323444619.00165749,47.37540436,8.55004501,499.32925415,4,7,1
1323444619.04933619,47.37540436,8.55004597,499.44009399,4,7,1
1323444619.09826970,47.37540436,8.55004692,499.41851807,4,7,1
1323444619.14862466,47.37540436,8.55004692,499.39691162,4,7,1
1323444619.20050979,47.37540436,8.55004692,499.37524414,4,7,1
1323444619.24849272,47.37540436,8.55004692,499.35357666,4,7,1
1323444619.30164313,47.37540436,8.55004883,499.46710205,4,7,1
1323444619.35011840,47.37540436,8.55004883,499.44595337,4,7,1
1323444619.40062189,47.37540436,8.55004883,499.42477417,4,7,1
1323444619.44853473,47.37540436,8.55004883,499.40353394,4,7,1
1323444619.49812508,47.37540436,8.55004883,499.38226318,4,7,1
1323444619.54908180,47.37540054,8.55005169,499.49224854,4,7,1
1323444619.60053587,47.37540054,8.55005169,499.47152710,4,7,1
1323444619.64993310,47.37540054,8.55005169,499.45074463,4,7,1
1323444619.70051312,47.37540054,8.55005169,499.42996216,4,7,1
1323444619.74851298,47.37540054,8.55005169,499.40911865,4,7,1
1323444619.80052018,47.37540054,8.55005264,499.51168823,4,7,1
1323444619.84850216,47.37540054,8.55005264,499.49133301,4,7,1
1323444619.90049171,47.37540054,8.55005264,499.47091675,4,7,1
1323444619.94862318,47.37540054,8.55005360,499.45046997,4,7,1
1323444620.00552750,47.37540054,8.55005360,499.42996216,4,7,1
1323444620.04851675,47.37540054,8.55005550,499.53198242,4,7,1
1323444620.10050988,47.37540054,8.55005550,499.51196289,4,7,1
1323444620.14846921,47.37540054,8.55005550,499.49188232,4,7,1
1323444620.20065379,47.37540054,8.55005550,499.47177124,4,7,1
1323444620.24862266,47.37540054,8.55005550,499.45162964,4,7,1
1323444620.29785442,47.37540054,8.55005741,499.54614258,4,7,1
1323444620.34863830,47.37539673,8.55005741,499.52642822,4,7,1
1323444620.40063787,47.37539673,8.55005741,499.50662231,4,7,1
1323444620.44950461,47.37539673,8.55005741,499.48681641,4,7,1
1323444620.50166178,47.37539673,8.55005741,499.46697998,4,7,1
1323444620.54848790,47.37539673,8.55005932,499.56887817,4,7,1
1323444620.59772730,47.37539673,8.55005932,499.54956055,4,7,1
1323444620.64863682,47.37539673,8.55005932,499.53021240,4,7,1
1323444620.69771481,47.37539673,8.55006027,499.51083374,4,7,1
1323444620.74849892,47.37539673,8.55006027,499.49142456,4,7,1
1323444620.80553794,47.37539673,8.55006218,499.58392334,4,7,1
1323444620.84856915,47.37539673,8.55006218,499.56494141,4,7,1
1323444620.89762807,47.37539673,8.55006313,499.54589844,4,7,1
1323444620.94956636,47.37539673,8.55006313,499.52685547,4,7,1
1323444621.00153852,47.37539673,8.55006313,499.50772095,4,7,1
1323444621.04850531,47.37539673,8.55006409,499.59567261,4,7,1
1323444621.09758544,47.37539673,8.55006409,499.57696533,4,7,1
1323444621.14908433,47.37539673,8.55006409,499.55825806,4,7,1
1323444621.20151973,47.37539673,8.55006409,499.53952026,4,7,1
1323444621.24851131,47.37539673,8.55006409,499.52072144,4,7,1
1323444621.30057549,47.37539673,8.55006504,499.61581421,4,7,1
1323444621.34999728,47.37539673,8.55006504,499.59747314,4,7,1
1323444621.40153122,47.37539673,8.55006504,499.57910156,4,7,1
1323444621.44857407,47.37539673,8.55006504,499.56072998,4,7,1
1323444621.50452805,47.37539291,8.55006504,499.54229736,4,7,1
1323444621.54944134,47.37539673,8.55006504,499.63760376,4,7,1
1323444621.60050750,47.37539673,8.55006504,499.61965942,4,7,1
1323444621.64848328,47.37539291,8.55006599,499.60165405,4,7,1
1323444621.70052743,47.37539291,8.55006599,499.58361816,4,7,1
1323444621.74847722,47.37539291,8.55006599,499.56555176,4,7,1
1323444621.80052924,47.37539673,8.55006599,499.66665649,4,7,1
1323444621.84852934,47.37539673,8.55006599,499.64904785,4,7,1
1323444621.89829946,47.37539673,8.55006599,499.63140869,4,7,1
1323444621.94851160,47.37539673,8.55006599,499.61370850,4,7,1
1323444622.00051880,47.37539291,8.55006599,499.59597778,4,7,1
1323444622.04849434,47.37539673,8.55006504,499.69268799,4,7,1
1323444622.10062718,47.37539673,8.55006504,499.67538452,4,7,1
1323444622.14849210,47.37539673,8.55006504,499.65808105,4,7,1
1323444622.20163369,47.37539673,8.55006504,499.64071655,4,7,1
1323444622.24849796,47.37539673,8.55006504,499.62332153,4,7,1
1323444622.30058789,47.37539673,8.55006599,499.71914673,4,7,1
1323444622.34862518,47.37539673,8.55006599,499.70217896,4,7,1
1323444622.38910127,47.37539673,8.55006599,499.68521118,4,7,1
1323444622.44851065,47.37539673,8.55006599,499.67160034,4,7,1
1323444622.50061703,47.37539673,8.55006599,499.65115356,4,7,1
1323444622.54847288,47.37539673,8.55006695,499.74160767,4,7,1
1323444622.60163283,47.37539673,8.55006695,499.72494507,4,7,1
1323444622.64862394,47.37539673,8.55006695,499.70825195,4,7,1
1323444622.69801927,47.37539673,8.55006695,499.69152832,4,7,1
1323444622.74902487,47.37539291,8.55006695,499.67477417,4,8,1
1323444622.78918171,47.37539673,8.55006886,499.75604248,4,8,1
1323444622.84848642,47.37539673,8.55006886,499.74288940,4,8,1
1323444622.88963795,47.37539673,8.55006886,499.72314453,4,8,1
1323444622.94987607,47.37539673,8.55006886,499.70993042,4,8,1
1323444623.00051880,47.37539673,8.55006886,499.69009399,4,8,1
1323444623.04966545,47.37539673,8.55006981,499.77691650,4,8,1
1323444623.09788561,47.37539673,8.55006981,499.76074219,4,8,1
1323444623.14948201,47.37539673,8.55006981,499.74456787,4,8,1
1323444623.18955421,47.37539673,8.55006981,499.72836304,4,8,1
1323444623.24998331,47.37539673,8.55006981,499.71539307,4,8,1
1323444623.28854632,47.37539673,8.55007172,499.79614258,4,8,1
1323444623.34972143,47.37539673,8.55007172,499.78350830,4,8,1
1323444623.40162754,47.37539673,8.55007172,499.76449585,4,8,1
1323444623.44158578,47.37539673,8.55007172,499.74865723,4,8,1
1323444623.49771428,47.37539673,8.55007172,499.73596191,4,8,1
1323444623.54862118,47.37539673,8.55007362,499.81060791,4,8,1
1323444623.60051537,47.37539673,8.55007362,499.79501343,4,8,1
1323444623.64851522,47.37539673,8.55007362,499.77941895,4,8,1
1323444623.68926048,47.37539673,8.55007362,499.76376343,4,8,1
1323444623.74948120,47.37539673,8.55007362,499.75125122,4,8,1
1323444623.80053759,47.37539673,8.55007458,499.81658936,4,8,1
1323444623.84946537,47.37539673,8.55007458,499.80117798,4,8,1
1323444623.90064716,47.37539673,8.55007553,499.78570557,4,8,1
1323444623.94865060,47.37539673,8.55007553,499.77026367,4,8,1
1323444624.00064421,47.37539673,8.55007553,499.75473022,4,8,1
1323444624.04850578,47.37539673,8.55007553,499.83657837,4,8,1
1323444624.10050583,47.37539673,8.55007553,499.82144165,4,8,1
1323444624.14854383,47.37539673,8.55007553,499.80624390,4,8,1
1323444624.20051646,47.37539673,8.55007648,499.79098511,4,8,1
1323444624.24154186,47.37539673,8.55007648,499.77569580,4,8,1
1323444624.30046082,47.37539673,8.55007648,499.85830688,4,8,1
1323444624.34073043,47.37539673,8.55007648,499.84036255,4,8,1
1323444624.40058041,47.37539673,8.55007648,499.82839966,4,8,1
1323444624.44849634,47.37539673,8.55007648,499.81036377,4,8,1
1323444624.50164604,47.37539673,8.55007648,499.79531860,4,8,1
1323444624.54850912,47.37539673,8.55007648,499.85922241,4,8,1
1323444624.60050821,47.37539673,8.55007648,499.84439087,4,8,1
1323444624.64232087,47.37539673,8.55007648,499.82952881,4,8,1
1323444624.69231558,47.37539673,8.55007648,499.81759644,4,8,1
1323444624.74851942,47.37539673,8.55007648,499.80267334,2,8,1
1323444624.78964448,47.37539673,8.55007648,499.87225342,2,8,1
1323444624.84994531,47.37539673,8.55007648,499.86056519,2,8,1
1323444624.90163755,47.37539673,8.55007648,499.84295654,2,8,1
1323444624.94849253,47.37539673,8.55007648,499.82827759,2,8,1
1323444624.99817348,47.37539673,8.55007648,499.81356812,2,8,1
1323444625.04849839,47.37539673,8.55007839,499.89093018,2,8,1
1323444625.10377073,47.37539673,8.55007839,499.87652588,2,8,1
1323444625.14899707,47.37539673,8.55007839,499.86212158,2,8,1
1323444625.20147681,47.37539673,8.55007839,499.84768677,2,8,1
1323444625.24846697,47.37539673,8.55007839,499.83322144,2,8,1
1323444625.30048251,47.37539673,8.55007935,499.91766357,2,8,1
1323444625.34849286,47.37539673,8.55008030,499.90353394,2,8,1
1323444625.40155721,47.37539673,8.55008030,499.88937378,2,8,1
1323444625.44132018,47.37539673,8.55008030,499.87515259,2,8,1
1323444625.50049496,47.37539673,8.55008030,499.86376953,2,8,1
1323444625.54176950,47.37539673,8.55008030,499.94906616,2,8,1
1323444625.58849740,47.37539673,8.55008030,499.93795776,2,8,1
1323444625.64952183,47.37539673,8.55008030,499.92401123,2,8,1
1323444625.70052934,47.37539673,8.55008030,499.90728760,2,8,1
1323444625.74051261,47.37539673,8.55008030,499.89331055,2,8,1
1323444625.80154896,47.37539673,8.55008030,499.98071289,2,8,1
1323444625.84905672,47.37539673,8.55008125,499.96438599,2,8,1
1323444625.90347981,47.37539673,8.55008125,499.95071411,2,8,1
1323444625.94852138,47.37539673,8.55008125,499.93701172,2,8,1
1323444626.00068712,47.37539673,8.55008125,499.92327881,2,8,1
1323444626.04451537,47.37539673,8.55008125,500.01147461,2,8,1
1323444626.08863592,47.37539673,8.55008125,500.00079346,2,8,1
1323444626.14850187,47.37539673,8.55008125,499.98739624,2,8,1
1323444626.20062470,47.37539673,8.55008125,499.97128296,2,8,1
1323444626.24053717,47.37539673,8.55008125,499.95779419,2,8,1
1323444626.29775286,47.37539673,8.55008125,500.05047607,2,8,1
1323444626.34054208,47.37539673,8.55008221,500.03472900,2,8,1
1323444626.40050340,47.37539673,8.55008221,500.02420044,2,8,1
1323444626.44947839,47.37539673,8.55008221,500.00839233,2,8,1
1323444626.48932934,47.37539673,8.55008221,499.99517822,2,8,1
1323444626.54050279,47.37539673,8.55008125,500.10107422,2,8,1
1323444626.60052633,47.37539673,8.55008125,500.08825684,2,8,1
1323444626.64053035,47.37539673,8.55008125,500.07284546,2,8,1
1323444626.68956995,47.37539673,8.55008125,500.06253052,2,8,1
1323444626.74971461,47.37539673,8.55008221,500.04959106,2,8,1
1323444626.78863597,47.37539673,8.55008221,500.16360474,2,8,1
1323444626.84018469,47.37539673,8.55008221,500.15359497,2,8,1
1323444626.89263749,47.37539673,8.55008221,500.14105225,2,8,1
1323444626.94051600,47.37539673,8.55008221,500.12850952,2,8,1
1323444626.98849511,47.37539673,8.55008221,500.11593628,2,8,1
1323444627.04865050,47.37539673,8.55008125,500.24087524,2,8,1
1323444627.09061599,47.37539673,8.55008125,500.22631836,2,8,1
1323444627.14074087,47.37539673,8.55008125,500.21658325,2,8,1
1323444627.20052862,47.37539673,8.55008125,500.20437622,2,8,1
1323444627.24072003,47.37539673,8.55008125,500.18969727,2,8,1
1323444627.28854704,47.37539673,8.55008221,500.32995605,2,8,1
1323444627.35022688,47.37539673,8.55008221,500.31826782,2,8,1
1323444627.38848233,47.37539673,8.55008316,500.30422974,2,8,1
1323444627.44848394,47.37539673,8.55008316,500.29483032,2,8,1
1323444627.49835443,47.37539673,8.55008316,500.28067017,2,8,1
1323444627.54948092,47.37539673,8.55008221,500.43493652,2,8,1
1323444627.60050416,47.37539673,8.55008316,500.42376709,2,8,1
1323444627.64972925,47.37539673,8.55008316,500.41262817,2,8,1
1323444627.70152164,47.37539673,8.55008316,500.40142822,2,8,1
1323444627.74847603,47.37539673,8.55008316,500.39019775,2,8,1
1323444627.79829907,47.37539673,8.55008221,500.55554199,2,8,1
1323444627.84963894,47.37539673,8.55008221,500.54495239,2,8,1
1323444627.89965773,47.37539291,8.55008221,500.53436279,2,8,1
1323444627.94852829,47.37539291,8.55008221,500.52371216,2,8,1
1323444628.00052071,47.37539291,8.55008221,500.51306152,2,8,1
1323444628.04849458,47.37539291,8.55008316,500.70382690,2,8,1
1323444628.10067844,47.37539291,8.55008316,500.69396973,2,8,1
1323444628.14850402,47.37539291,8.55008316,500.68405151,2,8,1
1323444628.20154953,47.37539291,8.55008316,500.67410278,2,8,1
1323444628.24861360,47.37539291,8.55008316,500.66412354,2,8,1
1323444628.29106379,47.37539291,8.55008411,500.86984253,2,8,1
1323444628.34862232,47.37539291,8.55008411,500.86251831,2,8,1
1323444628.40552688,47.37539291,8.55008411,500.85147095,2,8,1
1323444628.44852352,47.37539291,8.55008411,500.84222412,2,8,1
1323444628.50051665,47.37539291,8.55008411,500.83294678,2,8,1
1323444628.54855871,47.37538910,8.55008507,501.05047607,2,8,1
1323444628.60051584,47.37538910,8.55008507,501.04202271,2,8,1
1323444628.64862537,47.37538910,8.55008507,501.03356934,2,8,1
1323444628.69805241,47.37538910,8.55008507,501.02505493,2,8,1
1323444628.74850917,47.37538910,8.55008507,501.01654053,1,8,1
1323444628.80052757,47.37538910,8.55008698,501.24630737,1,8,1
1323444628.85259652,47.37538910,8.55008698,501.23867798,1,8,1
1323444628.90062046,47.37538910,8.55008698,501.23101807,1,8,1
1323444628.95001674,47.37538910,8.55008698,501.22332764,1,8,1
1323444629.00105858,47.37538910,8.55008698,501.21557617,1,8,1
1323444629.04853559,47.37538528,8.55008793,501.46267700,1,8,1
1323444629.09780979,47.37538528,8.55008793,501.45587158,1,8,1
1323444629.14922071,47.37538528,8.55008793,501.44903564,1,8,1
1323444629.20453906,47.37538528,8.55008793,501.44213867,1,8,1
1323444629.24852824,47.37538528,8.55008793,501.43524170,1,8,1
1323444629.30087280,47.37538528,8.55008698,501.70242310,1,8,1
1323444629.34977412,47.37538528,8.55008698,501.69659424,1,8,1
1323444629.40062118,47.37538528,8.55008698,501.69070435,1,8,1
1323444629.44913840,47.37538528,8.55008698,501.68478394,1,8,1
1323444629.49767137,47.37538528,8.55008698,501.67880249,1,8,1
1323444629.54852104,47.37538528,8.55008698,501.94772339,1,8,1
1323444629.60153532,47.37538528,8.55008698,501.94281006,1,8,1
1323444629.64850807,47.37538528,8.55008698,501.93789673,1,8,1
1323444629.70051622,47.37538528,8.55008698,501.93292236,1,8,1
1323444629.74859333,47.37538528,8.55008602,501.92791748,1,8,1
1323444629.80151057,47.37538147,8.55008602,502.19467163,1,8,1
1323444629.84864998,47.37538147,8.55008602,502.19070435,1,8,1
1323444629.89951444,47.37538147,8.55008602,502.18670654,1,8,1
1323444629.94852519,47.37538147,8.55008602,502.18264771,1,8,1
1323444629.99763656,47.37538147,8.55008602,502.17858887,1,8,1
1323444630.04887056,47.37538147,8.55008602,502.44558716,1,8,1
1323444630.10051537,47.37538147,8.55008602,502.44256592,1,8,1
1323444630.14848804,47.37538147,8.55008602,502.43948364,1,8,1
1323444630.20151734,47.37538147,8.55008602,502.43640137,1,8,1
1323444630.24850464,47.37538147,8.55008602,502.43328857,1,8,1
1323444630.30062652,47.37537766,8.55008507,502.71429443,1,8,1
1323444630.34848499,47.37537766,8.55008507,502.71224976,1,8,1
1323444630.38850403,47.37537766,8.55008507,502.71017456,1,8,1
1323444630.44851804,47.37537766,8.55008507,502.70846558,1,8,1
1323444630.50050330,47.37537766,8.55008411,502.70590210,1,8,1
1323444630.54050493,47.37537766,8.55008507,503.01376343,1,8,1
1323444630.60051274,47.37537766,8.55008507,503.01300049,1,8,1
1323444630.65020871,47.37537766,8.55008507,503.01181030,1,8,1
1323444630.69826007,47.37537766,8.55008507,503.01080322,1,8,1
1323444630.74849463,47.37537766,8.55008411,503.00973511,0,8,1
1323444630.80553436,47.37537384,8.55008507,503.29574585,0,8,1
1323444630.84849644,47.37537384,8.55008411,503.29580688,0,8,1
1323444630.90163994,47.37537384,8.55008411,503.29583740,0,8,1
1323444630.94957948,47.37537384,8.55008411,503.29583740,0,8,1
1323444631.00049782,47.37537384,8.55008411,503.29583740,0,8,1
1323444631.04864430,47.37537384,8.55008411,503.56002808,0,8,1
1323444631.09810805,47.37537384,8.55008316,503.56100464,0,8,1
1323444631.14863348,47.37537003,8.55008316,503.56195068,0,8,1
1323444631.20051694,47.37537003,8.55008316,503.56289673,0,8,1
1323444631.24850774,47.37537003,8.55008316,503.56378174,0,8,1
1323444631.30052304,47.37537003,8.55008411,503.79061890,0,8,1
1323444631.34998441,47.37537003,8.55008411,503.79232788,0,8,1
1323444631.39374924,47.37537003,8.55008411,503.79397583,0,8,1
1323444631.44163513,47.37537003,8.55008411,503.79528809,0,8,1
1323444631.49811387,47.37537003,8.55008411,503.79690552,0,8,1
1323444631.54912567,47.37537003,8.55008411,504.02993774,0,8,1
1323444631.60057902,47.37537003,8.55008411,504.03240967,0,8,1
1323444631.64877105,47.37537003,8.55008316,504.03485107,0,8,1
1323444631.70051384,47.37537003,8.55008316,504.03726196,0,8,1
1323444631.74852037,47.37537003,8.55008316,504.03964233,0,8,1
1323444631.80164194,47.37537003,8.55008316,504.26580811,0,8,1
1323444631.84854126,47.37537003,8.55008316,504.26904297,0,8,1
1323444631.89250374,47.37537003,8.55008316,504.27221680,0,8,1
1323444631.94862437,47.37537003,8.55008221,504.27474976,0,8,1
1323444632.00052857,47.37537003,8.55008221,504.27850342,0,8,1
1323444632.04853535,47.37536621,8.55008507,504.50106812,0,8,1
1323444632.10121655,47.37536621,8.55008507,504.50506592,0,8,1
1323444632.14847994,47.37536621,8.55008411,504.50903320,0,8,1
1323444632.20160937,47.37536621,8.55008411,504.51296997,0,8,1
1323444632.24968243,47.37536621,8.55008411,504.51687622,0,8,1
1323444632.29767537,47.37536621,8.55008698,504.74020386,0,8,1
1323444632.34854674,47.37536621,8.55008698,504.74496460,0,8,1
1323444632.40053463,47.37536621,8.55008698,504.74972534,0,8,1
1323444632.44852114,47.37536621,8.55008698,504.75442505,0,8,1
1323444632.50052953,47.37536621,8.55008698,504.75909424,0,8,1
1323444632.54965091,47.37536621,8.55008698,504.97473145,0,8,1
1323444632.60052848,47.37536621,8.55008698,504.98022461,0,8,1
1323444632.64964461,47.37536240,8.55008698,504.98565674,0,8,1
1323444632.69768238,47.37536240,8.55008698,504.99105835,0,8,1
1323444632.74956036,47.37536240,8.55008698,504.99642944,0,8,1
1323444632.80053329,47.37536240,8.55008888,505.20535278,0,8,1
1323444632.84853554,47.37536240,8.55008888,505.21148682,0,8,1
1323444632.90054846,47.37536240,8.55008984,505.21762085,0,8,1
1323444632.94959760,47.37536240,8.55008984,505.22372437,0,8,1
1323444632.99763417,47.37536240,8.55008984,505.22979736,0,8,1
1323444633.04963017,47.37536240,8.55009079,505.43228149,0,8,1
1323444633.09753728,47.37536240,8.55009079,505.43908691,0,8,1
1323444633.14953852,47.37535858,8.55009079,505.44586182,0,8,1
1323444633.20150876,47.37535858,8.55009079,505.45260620,0,8,1
1323444633.24853444,47.37535858,8.55009079,505.45935059,0,8,1
1323444633.30051541,47.37535858,8.55008984,505.66162109,0,8,1
1323444633.34971380,47.37535858,8.55008984,505.66906738,0,8,1
1323444633.40052176,47.37535858,8.55008984,505.67645264,0,8,1
1323444633.44953990,47.37535858,8.55008984,505.68380737,0,8,1
1323444633.49840331,47.37535858,8.55008984,505.69110107,0,8,1
1323444633.54852057,47.37535858,8.55008888,505.88549805,0,8,1
1323444633.60553551,47.37535858,8.55008888,505.89349365,0,8,1
1323444633.64955997,47.37535858,8.55008888,505.90148926,0,8,1
1323444633.70156765,47.37535477,8.55008888,505.90945435,0,8,1
1323444633.75026870,47.37535477,8.55008888,505.91738892,0,8,1
1323444633.80151749,47.37535477,8.55008793,506.11157227,0,8,1
1323444633.84954405,47.37535477,8.55008793,506.12017822,0,8,1
1323444633.90052366,47.37535477,8.55008793,506.12875366,0,8,1
1323444633.94954491,47.37535477,8.55008793,506.13729858,0,8,1
1323444634.00052929,47.37535477,8.55008793,506.14584351,0,8,1
1323444634.04850698,47.37535095,8.55008888,506.34249878,0,8,1
1323444634.10118937,47.37535095,8.55008888,506.35171509,0,8,1
1323444634.14848542,47.37535095,8.55008888,506.36090088,0,8,1
1323444634.20164061,47.37535095,8.55008888,506.37005615,0,8,1
1323444634.24852276,47.37535095,8.55008888,506.37918091,0,8,1
1323444634.29811931,47.37535095,8.55009079,506.57366943,0,8,1
1323444634.34968543,47.37535095,8.55009079,506.58352661,0,8,1
1323444634.40053272,47.37535095,8.55009079,506.59335327,0,8,1
1323444634.44957232,47.37535095,8.55009079,506.60317993,0,8,1
1323444634.50062370,47.37535095,8.55009079,506.61297607,0,8,1
1323444634.54848814,47.37535095,8.55009079,506.79586792,0,8,1
1323444634.60165644,47.37534714,8.55009079,506.80630493,0,8,1
1323444634.64954734,47.37534714,8.55009079,506.81671143,0,8,1
1323444634.70371699,47.37534714,8.55009079,506.82711792,0,8,1
1323444634.74954438,47.37534714,8.55009079,506.83746338,0,8,1
1323444634.80053091,47.37534714,8.55008984,507.01522827,0,8,1
1323444634.84851193,47.37534714,8.55008984,507.02618408,0,8,1
1323444634.90156889,47.37534714,8.55008984,507.03713989,0,8,1
1323444634.94846416,47.37534714,8.55008984,507.04803467,0,8,1
1323444635.00050974,47.37534714,8.55008984,507.05889893,0,8,1
1323444635.04951453,47.37534714,8.55008888,507.22949219,0,8,1
1323444635.09785795,47.37534332,8.55008888,507.24096680,0,8,1
1323444635.14869952,47.37534332,8.55008888,507.25238037,0,8,1
1323444635.19782805,47.37534332,8.55008888,507.26376343,0,8,1
1323444635.24849510,47.37534332,8.55008888,507.27511597,0,8,1
1323444635.30151749,47.37534332,8.55008984,507.42962646,0,8,1
1323444635.34952331,47.37534332,8.55008888,507.44149780,0,8,1
1323444635.40051579,47.37534332,8.55008888,507.45330811,0,8,1
1323444635.44966769,47.37534332,8.55008888,507.46511841,0,8,1
1323444635.49772429,47.37534332,8.55008888,507.47686768,0,8,1
1323444635.54853153,47.37534332,8.55008888,507.63174438,0,8,1
1323444635.60055995,47.37534332,8.55008888,507.64404297,0,8,1
1323444635.64853287,47.37534332,8.55008888,507.65631104,0,8,1
1323444635.68959999,47.37534332,8.55008888,507.66854858,0,8,1
1323444635.74962902,47.37534332,8.55008888,507.67831421,0,8,1
1323444635.79762626,47.37534332,8.55008888,507.82873535,0,8,1
1323444635.84960818,47.37534332,8.55008793,507.84143066,0,8,1
1323444635.90051198,47.37534332,8.55008793,507.85409546,0,8,1
1323444635.94855094,47.37534332,8.55008793,507.86669922,0,8,1
1323444636.00148702,47.37534332,8.55008793,507.87927246,0,8,1
1323444636.04850960,47.37534332,8.55008984,508.01986694,0,8,1
1323444636.09755230,47.37534332,8.55008984,508.03292847,0,8,1
1323444636.14450192,47.37534332,8.55008984,508.04592896,0,8,1
1323444636.20053220,47.37534332,8.55008984,508.05630493,0,8,1
1323444636.24999022,47.37534332,8.55008984,508.07183838,0,8,1
1323444636.29844427,47.37533951,8.55009079,508.19833374,0,8,1
1323444636.34856009,47.37533951,8.55009079,508.21163940,0,8,1
